Location: Bergfeld
(52.0500°N, 11.7833°E)
Time: 08:48:29
(UTC+00:00)

Lacrosse 5 - Pass Details

Date: 17 February 2020
Orbit: 715 x 724 km, 57.0° (Epoch: 21 March)

Event Time Altitude Azimuth Distance (km) Brightness Sun altitude
Exits shadow 02:59:22 41° 88° (E) 1,043 3.0 -31.8°
Drops below altitude 10° 03:02:45 10° 104° (ESE) 2,208 5.0 -31.4°
Sets 03:05:09 0° 107° (ESE) 3,129 5.9 -31.0°
